Regional Weather Roundup
Issued by NWS

Home | Current Version | Previous Version | Graphics & Text | Print | Product List | Glossary On
Versions: 1 2 3 4 5 6 7 8 9 10 11 12 13 14 15 16 17 18 19 20 21 22 23 24 25 26 27 28 29 30 31 32 33 34 35 36 37 38 39 40 41 42 43 44 45 46 47 48 49 50
000
ASUS43 KDMX 261707
RWRIA

WEATHER ROUNDUP FOR IOWA
NATIONAL WEATHER SERVICE DES MOINES IA
1100 AM CST WED NOV 26 2014

NOTE: "FAIR" INDICATES FEW OR NO CLOUDS BELOW 12,000 FEET WITH NO
SIGNIFICANT WEATHER AND/OR OBSTRUCTIONS TO VISIBILITY.

* - THESE STATIONS ARE NOT NWS STATIONS...THUS NOT UNDER NWS
QUALITY CONTROL.  THEY ALSO DO NOT REPORT WEATHER SUCH
AS PRECIPITATION OR FOG.

IAZ001>003-012>014-020>022-031>034-043>046-261800-
   NORTHWEST IOWA

CITY           SKY/WX    TMP DP  RH WIND       PRES   REMARKS
CARROLL *      MIX PCPN  28  27  93 N15       30.01R WCI  17
CHEROKEE *     LGT SNOW  27  25  93 N16G25    30.09R WCI  14
DENISON *      CLOUDY    28  28 100 N16       30.01R WCI  17
LE MARS *      CLOUDY    27  23  86 N21G26    30.16R WCI  13
ORANGE CITY *  LGT SNOW  27  21  80 N17G24    30.12R WCI  14
SHELDON *      MIX PCPN  25  21  86 N23G30    30.12R WCI  10
SIOUX CITY     CLOUDY    29  22  75 N29G37    30.14R WCI  14
SPENCER        LGT SNOW  26  22  84 N20G25    30.10R VSB 3/4 WCI  12
STORM LAKE *   CLOUDY    27  25  93 N22G28    30.05R WCI  12
$$

IAZ055>058-069>071-079>083-090>094-261800-
   SOUTHWEST IOWA

CITY           SKY/WX    TMP DP  RH WIND       PRES   REMARKS
ATLANTIC *     CLOUDY    32  32 100 N14       29.98R FOG     WCI  22
AUDUBON *      CLOUDY    28  25  86 N13       29.99R HAZE    WCI  18
CLARINDA *     CLOUDY    36  34  93 NW18G24   29.99R WCI  25
COUNCIL BLFS * CLOUDY    32  32 100 NW23G31   30.01R WCI  19
CRESTON *      FOG       32  32 100 N17       29.92R VSB 1/2 WCI  21
HARLAN  *      CLOUDY    32  32 100 N22G29    30.03R WCI  19
LAMONI         CLOUDY    35  32  88 NW15      29.89R WCI  25
RED OAK *      CLOUDY    36  32  87 NW18G25   29.98R WCI  25
SHENANDOAH *   CLOUDY    37  34  87 NW17      30.01R WCI  28
$$

IAZ047>049-059>061-072>074-084-261800-
   CENTRAL IOWA

CITY           SKY/WX    TMP DP  RH WIND       PRES   REMARKS
AMES           LGT SNOW  29  25  85 E8        29.98R VSB 1   WCI  21
ANKENY *       LGT SNOW  30  28  93 NE7       29.96R VSB 1   WCI  23
CHARITON *     CLOUDY    32  30  93 E12       29.90R WCI  23
DES MOINES     LGT SNOW  30  27  88 NE10      29.95R FOG     WCI  21
GRINNELL*      LGT SNOW  30  27  86 E16       29.96S VSB 3/4 WCI  19
KNOXVILLE *    LGT SNOW  30  27  86 E10       29.92R WCI  21
MARSHALLTOWN   LGT SNOW  28  24  85 E15       29.98R FOG     WCI  16
PELLA *        LGT SNOW  32  28  86 E8        29.96R WCI  25
PERRY *        LGT SNOW  30  28  93 NE9       29.98R WCI  22
$$

IAZ004>006-015-016-023>025-035-036-261800-
   NORTH CENTRAL IOWA

CITY           SKY/WX    TMP DP  RH WIND       PRES   REMARKS
ALGONA *       RAIN      27  25  93 N16       30.06R VSB 1   WCI  14
CLARION *      MIX PCPN  27  25  93 E14       30.03R WCI  15
ESTHERVILLE    LGT SNOW  24  21  88 N18       30.09R FOG     WCI  10
FORT DODGE *   CLOUDY    27  21  80 N8        30.04R WCI  18
MASON CITY     CLOUDY    28  21  75 E9        30.06R WCI  19
FOREST CITY *  LGT SNOW  28  28 100 N6        30.06R WCI  22
IOWA FALLS *   LGT SNOW  28  23  80 E10       30.02R WCI  19
$$

IAZ007>011-017>019-026>030-037>042-050>054-066-261800-
   NORTHEAST IOWA

CITY           SKY/WX    TMP DP  RH WIND       PRES   REMARKS
CEDAR RAPIDS   CLOUDY    27  24  89 E15       30.02S WCI  15
CHARLES CITY * CLOUDY    28  23  80 E13       30.06R WCI  18
CLINTON *        N/A     27  21  80 SE15      30.10F WCI  15
DECORAH *      MOSUNNY   25  21  86 E6        30.07R WCI  18
DUBUQUE        CLOUDY    22  21  96 E10       30.07F FOG     WCI  11
MONTICELLO *   PTSUNNY   27  25  93 E9        30.06F WCI  17
OELWEIN *      PTSUNNY   28  25  86 E14       30.04S WCI  17
WATERLOO       CLOUDY    29  23  78 E13       30.04R WCI  19
$$

IAZ064-065-067-068-078-261800-
   EAST CENTRAL IOWA

CITY           SKY/WX    TMP DP  RH WIND       PRES   REMARKS
DAVENPORT      CLOUDY    25  20  81 E15       30.06F WCI  13
IOWA CITY      CLOUDY    27  23  85 E13       30.05R WCI  16
MT. PLEASANT * CLOUDY    32  27  80 E13       30.00S WCI  22
MUSCATINE *    MOSUNNY   30  25  80 E12       30.05S WCI  21
QUAD CITIES    CLOUDY    27  23  85 E10       30.07S WCI  17
$$

IAZ062-063-075>077-085>089-095>099-261800-
   SOUTHEAST IOWA

CITY           SKY/WX    TMP DP  RH WIND       PRES   REMARKS
BURLINGTON     CLOUDY    32  27  81 E10       30.00F WCI  24
FAIRFIELD *    LGT SNOW  30  28  93 E13       29.96S VSB 3/4 WCI  20
FORT MADISON * LGT SNOW  34  28  80 SE10      30.00S WCI  26
KEOKUK *       LGT SNOW  32  30  93 SE12      29.97F WCI  23
OSKALOOSA *    LGT SNOW  30  28  93 E12       29.96R VSB 1   WCI  21
CENTERVILLE *  MIX PCPN  32  32 100 SE6       29.91S WCI  26
OTTUMWA        LGT SNOW  30  28  92 E14       29.94S FOG     WCI  19
WASHINGTON *   MOSUNNY   30  30 100 E13       30.00S WCI  20
$$

ABBREVIATIONS USED IN REMARKS
   TC - TEMPERATURES IN CELSIUS
  WCI - WIND CHILL INDEX
   HX - HEAT INDEX
  VSB - VISIBILITY
$$



USA.gov is the U.S. government's official web portal to all federal, state and local government web resources and services.